sat.trackr.live / text

‹ back to catalog

AZERSPACE 1

NORAD 39079 · 2013-006B

PAYLOAD ACTIVE UNKNOWN

§ Identity

Operator
Country
AZER
Launch date
2013-02-07
Launch site
FRGUI
Launch vehicle
Mass (kg)
RCS (m²)
50.12

Purposes: comms

External: N2YO · Heavens-Above · Gunter

§ Orbital elements

Epoch: 2026-09-13T02:05:49.917120Z

Period
1,436.08 min
Inclination
0.0211°
Eccentricity
0.0001507
Mean motion
1.00272905 rev/d
Perigee alt
35,779.9 km
Apogee alt
35,792.6 km
Semi-major
42,164.4 km
B*
0.0000e+0
RAAN
129.0019°
Arg perigee
60.2436°
Mean anomaly
240.2769°
Rev number
4,968

§ Raw data

AZERSPACE 11 39079U 13006B   26256.08738330  .00000121  00000+0  00000+0 0  99932 39079   0.0211 129.0019 0001507  60.2436 240.2769  1.00272905 49683

JSON: /api/v1/satellites/39079 · /tle

For live sub-satellite position, see the globe view (requires WebGL).

§ Visibility from observer

Set your observer location to see the next 7 days of passes ≥ 10°. The values pass through the URL so the page stays shareable.

No JS? Fill the form by hand. The geolocation button needs JavaScript.